EW7844 Weather Reports


time (UTC)temp
C
wind
direction
speed
KPH
gust
KPH
rain 1hr
cm
rain 24hr
cm
rain mn
cm
humidity
%
barometer
mb
20260506045003 21 0 0.0 0.0 0.00 0.00 0.00 56 1013.3
20260506044003 21 69 0.0 3.2 0.00 0.00 0.00 56 1013.5
20260506043507 21 75 0.0 3.2 0.00 0.00 0.00 57 1013.8
20260506043004 21 84 0.0 1.6 0.00 0.00 0.00 56 1013.8
20260506042507 21 232 0.0 3.2 0.00 0.00 0.00 56 1013.8
20260506041507 21 0 0.0 0.0 0.00 0.00 0.00 56 1013.8
20260506041007 21 0 0.0 0.0 0.00 0.00 0.00 55 1013.9
20260506035503 20 0 0.0 0.0 0.00 0.00 0.00 54 1013.7
20260506035007 20 0 0.0 0.0 0.00 0.00 0.00 53 1013.6
20260506034503 20 0 0.0 0.0 0.00 0.00 0.00 53 1013.6
20260506034007 20 0 0.0 0.0 0.00 0.00 0.00 53 1013.7
20260506033504 20 142 0.0 1.6 0.00 0.00 0.00 52 1013.7
20260506033006 20 142 0.0 1.6 0.00 0.00 0.00 52 1013.8
20260506032503 20 0 0.0 0.0 0.00 0.00 0.00 51 1013.8
20260506032008 20 113 0.0 1.6 0.00 0.00 0.00 51 1013.8
20260506031503 21 123 0.0 1.6 0.00 0.00 0.00 50 1013.8
20260506031006 21 130 0.0 1.6 0.00 0.00 0.00 49 1013.9
20260506030503 21 12 0.0 1.6 0.00 0.00 0.00 50 1013.8
20260506030007 21 12 0.0 1.6 0.00 0.00 0.00 49 1013.8
20260506025503 21 0 0.0 0.0 0.00 0.00 0.00 50 1013.9
20260506025007 21 0 0.0 0.0 0.00 0.00 0.00 49 1013.9
20260506024006 21 0 0.0 0.0 0.00 0.00 0.00 51 1014.0
20260506023504 21 107 0.0 1.6 0.00 0.00 0.00 51 1013.9
20260506023006 21 69 0.0 1.6 0.00 0.00 0.00 51 1013.8
20260506022503 21 62 0.0 1.6 0.00 0.00 0.00 51 1013.7
20260506022006 21 90 0.0 1.6 0.00 0.00 0.00 53 1013.7
20260506021503 21 90 0.0 1.6 0.00 0.00 0.00 52 1013.6
20260506021008 21 0 0.0 0.0 0.00 0.00 0.00 53 1013.7
20260506020503 21 0 0.0 0.0 0.00 0.00 0.00 52 1013.6
20260506020006 21 0 0.0 0.0 0.00 0.00 0.00 52 1013.7
20260506015006 21 0 0.0 0.0 0.00 0.00 0.00 52 1013.6
20260506014007 21 0 0.0 0.0 0.00 0.00 0.00 53 1013.5
20260506013503 21 0 0.0 0.0 0.00 0.00 0.00 52 1013.7
20260506013007 21 0 0.0 0.0 0.00 0.00 0.00 52 1013.6
20260506012503 21 326 0.0 3.2 0.00 0.00 0.00 52 1013.5
20260506012006 21 326 0.0 3.2 0.00 0.00 0.00 51 1013.4
20260506011504 21 0 0.0 0.0 0.00 0.00 0.00 50 1013.3
20260506011006 21 0 0.0 0.0 0.00 0.00 0.00 50 1013.3
20260506010006 21 78 0.0 1.6 0.00 0.00 0.00 49 1013.3
20260506005503 21 83 0.0 3.2 0.00 0.00 0.00 48 1013.3
20260506004503 21 79 0.0 6.4 0.00 0.00 0.00 48 1013.3
20260506004007 22 139 0.0 1.6 0.00 0.00 0.00 46 1013.4
20260506003503 22 41 0.0 1.6 0.00 0.00 0.00 47 1013.5
20260506003007 22 79 0.0 1.6 0.00 0.00 0.00 46 1013.4
20260506002503 22 123 0.0 1.6 0.00 0.00 0.00 47 1013.3
20260506002008 22 122 0.0 1.6 0.00 0.00 0.00 47 1013.3
20260506001503 22 74 0.0 4.8 0.00 0.00 0.00 46 1013.3
20260506001007 22 72 0.0 4.8 0.00 0.00 0.00 47 1013.4
20260506000503 22 93 0.0 6.4 0.00 0.00 0.00 48 1013.5
20260506000007 22 96 0.0 6.4 0.00 0.00 0.00 50 1013.5
20260505235503 22 77 0.0 4.8 0.00 0.00 0.00 50 1013.4
20260505235007 22 79 0.0 4.8 0.00 0.00 0.00 50 1013.4
20260505234503 22 29 0.0 3.2 0.00 0.00 0.00 50 1013.4
20260505234008 23 18 0.0 3.2 0.00 0.00 0.00 48 1013.4
20260505233504 23 0 0.0 0.0 0.00 0.00 0.00 47 1013.4
20260505233008 23 0 0.0 0.0 0.00 0.00 0.00 47 1013.4
20260505232504 23 0 0.0 0.0 0.00 0.00 0.00 45 1013.3
20260505232006 24 0 0.0 0.0 0.00 0.00 0.00 43 1013.4
20260505231503 24 0 0.0 0.0 0.00 0.00 0.00 43 1013.3
20260505231007 24 281 0.0 1.6 0.00 0.00 0.00 42 1013.2
20260505230503 25 262 0.0 1.6 0.00 0.00 0.00 41 1013.1
20260505230007 25 123 0.0 1.6 0.00 0.00 0.00 42 1013.1
20260505225505 25 123 0.0 1.6 0.00 0.00 0.00 40 1013.2
20260505225007 25 118 0.0 1.6 0.00 0.00 0.00 40 1013.3
20260505224503 25 122 0.0 1.6 0.00 0.00 0.00 41 1013.2
20260505224006 25 125 0.0 1.6 0.00 0.00 0.00 40 1013.4
20260505223503 25 198 0.0 1.6 0.00 0.00 0.00 41 1013.5
20260505223007 25 132 0.0 3.2 0.00 0.00 0.00 39 1013.3
20260505222503 25 115 0.0 3.2 0.00 0.00 0.00 41 1013.4
20260505222006 25 69 0.0 3.2 0.00 0.00 0.00 39 1013.3
20260505221504 25 43 0.0 3.2 0.00 0.00 0.00 39 1013.4
20260505221007 25 154 0.0 1.6 0.00 0.00 0.00 40 1013.4
20260505220503 26 131 0.0 4.8 0.00 0.00 0.00 40 1013.3
20260505220007 26 125 0.0 4.8 0.00 0.00 0.00 37 1013.1
20260505215503 26 132 0.0 1.6 0.00 0.00 0.00 39 1013.1
20260505215007 26 131 0.0 1.6 0.00 0.00 0.00 38 1013.3
20260505214007 26 128 1.6 8.0 0.00 0.00 0.00 35 1013.3
20260505213504 27 158 1.6 11.3 0.00 0.00 0.00 35 1013.3
20260505213007 27 140 1.6 11.3 0.00 0.00 0.00 34 1013.3
20260505212503 27 107 0.0 8.0 0.00 0.00 0.00 34 1013.3
20260505212007 27 113 1.6 8.0 0.00 0.00 0.00 34 1013.5
20260505211503 27 113 1.6 6.4 0.00 0.00 0.00 32 1013.5
20260505210504 28 167 0.0 4.8 0.00 0.00 0.00 34 1013.5
20260505210007 28 169 0.0 4.8 0.00 0.00 0.00 32 1013.5
20260505205503 28 152 0.0 3.2 0.00 0.00 0.00 34 1013.6
20260505205007 28 120 0.0 3.2 0.00 0.00 0.00 33 1013.6
20260505204008 28 129 1.6 9.7 0.00 0.00 0.00 33 1013.7
20260505203504 28 123 1.6 9.7 0.00 0.00 0.00 34 1013.9
20260505202503 27 193 0.0 4.8 0.00 0.00 0.00 35 1013.9
20260505202007 28 129 0.0 4.8 0.00 0.00 0.00 34 1013.9
20260505201007 28 97 0.0 6.4 0.00 0.00 0.00 34 1014.1
20260505200503 27 58 1.6 16.1 0.00 0.00 0.00 35 1014.1
20260505200007 27 62 1.6 16.1 0.00 0.00 0.00 35 1014.1
20260505195503 27 106 1.6 9.7 0.00 0.00 0.00 34 1014.3
20260505195007 28 140 1.6 4.8 0.00 0.00 0.00 32 1014.5
20260505194503 28 168 0.0 4.8 0.00 0.00 0.00 34 1014.6
20260505194007 28 137 0.0 6.4 0.00 0.00 0.00 36 1014.8
20260505193504 27 126 1.6 6.4 0.00 0.00 0.00 35 1014.7
20260505193009 27 98 0.0 3.2 0.00 0.00 0.00 36 1014.7
20260505192503 27 158 0.0 4.8 0.00 0.00 0.00 36 1014.7
20260505192007 27 183 0.0 4.8 0.00 0.00 0.00 37 1014.6
20260505190007 27 149 1.6 6.4 0.00 0.00 0.00 35 1014.8
20260505185007 27 104 1.6 9.7 0.00 0.00 0.00 34 1014.7
20260505184503 27 129 1.6 9.7 0.00 0.00 0.00 33 1014.9
20260505183003 27 156 1.6 8.0 0.00 0.00 0.00 37 1014.9
20260505182508 27 137 1.6 8.0 0.00 0.00 0.00 35 1015.0
20260505181507 28 121 1.6 8.0 0.00 0.00 0.00 36 1015.2
20260505181003 28 104 1.6 8.0 0.00 0.00 0.00 36 1015.2
20260505180507 27 107 0.0 6.4 0.00 0.00 0.00 36 1015.4
20260505175003 27 129 1.6 8.0 0.00 0.00 0.00 34 1015.7
20260505174505 27 108 1.6 9.7 0.00 0.00 0.00 36 1015.7
20260505173507 27 104 1.6 6.4 0.00 0.00 0.00 38 1016.0
20260505173002 27 150 1.6 8.0 0.00 0.00 0.00 40 1015.9
20260505172506 27 144 1.6 16.1 0.00 0.00 0.00 41 1016.0
20260505172002 27 112 1.6 16.1 0.00 0.00 0.00 38 1016.0
20260505171506 27 98 1.6 9.7 0.00 0.00 0.00 38 1016.0
20260505171002 27 92 0.0 8.0 0.00 0.00 0.00 38 1016.1
20260505170505 27 137 1.6 8.0 0.00 0.00 0.00 37 1016.1
20260505165507 27 137 0.0 4.8 0.00 0.00 0.00 39 1016.0
20260505165002 26 133 1.6 4.8 0.00 0.00 0.00 38 1016.0
20260505164506 26 133 1.6 12.9 0.00 0.00 0.00 40 1016.0
20260505163506 26 145 3.2 12.9 0.00 0.00 0.00 38 1015.8
20260505163002 26 144 1.6 12.9 0.00 0.00 0.00 39 1015.8
20260505162506 26 103 1.6 11.3 0.00 0.00 0.00 40 1015.9
20260505162002 26 115 1.6 11.3 0.00 0.00 0.00 40 1016.0
20260505161506 26 140 1.6 6.4 0.00 0.00 0.00 39 1015.9
20260505161002 26 103 1.6 11.3 0.00 0.00 0.00 42 1016.1
20260505160506 25 79 1.6 11.3 0.00 0.00 0.00 41 1016.2
20260505153002 24 108 0.0 3.2 0.00 0.00 0.00 53 1016.4
20260505152507 23 77 0.0 4.8 0.00 0.00 0.00 50 1016.4
20260505152002 23 83 1.6 4.8 0.00 0.00 0.00 50 1016.3
20260505151506 23 51 1.6 4.8 0.00 0.00 0.00 50 1016.3
20260505151002 23 12 0.0 4.8 0.00 0.00 0.00 53 1016.3
20260505150506 22 341 0.0 4.8 0.00 0.00 0.00 54 1016.5
20260505140506 21 349 0.0 4.8 0.00 0.00 0.00 62 1016.6
20260505124506 13 77 0.0 3.2 0.00 0.00 0.00 85 1015.8
20260505123506 12 9 0.0 4.8 0.00 0.00 0.00 87 1015.7
20260505123002 12 9 0.0 4.8 0.00 0.00 0.00 90 1015.7
20260505122002 11 0 0.0 0.0 0.00 0.00 0.00 96 1015.5
20260505121505 10 91 0.0 3.2 0.00 0.00 0.00 97 1015.6
20260505121002 10 91 0.0 3.2 0.00 0.00 0.00 97 1015.6
20260505120506 10 0 0.0 0.0 0.00 0.00 0.00 97 1015.5
20260505115505 9 0 0.0 0.0 0.00 0.00 0.00 97 1015.5
20260505115002 8 0 0.0 0.0 0.00 0.00 0.00 97 1015.4
20260505114506 8 0 0.0 0.0 0.00 0.00 0.00 97 1015.3
20260505113506 8 0 0.0 0.0 0.00 0.00 0.00 96 1015.1
20260505112506 8 0 0.0 0.0 0.00 0.00 0.00 96 1015.0
20260505112002 8 0 0.0 0.0 0.00 0.00 0.00 96 1014.8
20260505111507 7 0 0.0 0.0 0.00 0.00 0.00 96 1014.6
20260505111002 7 0 0.0 0.0 0.00 0.00 0.00 96 1014.5
20260505110506 7 0 0.0 0.0 0.00 0.00 0.00 96 1014.6
20260505102002 7 0 0.0 0.0 0.00 0.00 0.00 96 1014.5
20260505101506 7 0 0.0 0.0 0.00 0.00 0.00 95 1014.4
20260505101002 8 0 0.0 0.0 0.00 0.00 0.00 95 1014.4
20260505100506 8 0 0.0 0.0 0.00 0.00 0.00 95 1014.5
20260505100002 8 0 0.0 0.0 0.00 0.00 0.00 96 1014.6
20260505095506 8 0 0.0 0.0 0.00 0.00 0.00 96 1014.6
20260505095002 8 0 0.0 0.0 0.00 0.00 0.00 96 1014.7
20260505094003 8 0 0.0 0.0 0.00 0.00 0.00 96 1014.5
20260505093507 8 0 0.0 0.0 0.00 0.00 0.00 96 1014.5
20260505093002 8 0 0.0 0.0 0.00 0.00 0.00 96 1014.4
20260505092506 8 0 0.0 0.0 0.00 0.00 0.00 95 1014.4
20260505092002 8 0 0.0 0.0 0.00 0.00 0.00 95 1014.4
20260505091506 8 0 0.0 0.0 0.00 0.00 0.00 95 1014.4
20260505090506 8 0 0.0 0.0 0.00 0.00 0.00 95 1014.7
20260505085505 8 0 0.0 0.0 0.00 0.00 0.00 95 1014.7
20260505085003 8 0 0.0 0.0 0.00 0.00 0.00 95 1014.8
20260505084506 8 0 0.0 0.0 0.00 0.00 0.00 95 1014.8
20260505084002 8 0 0.0 0.0 0.00 0.00 0.00 94 1014.8
20260505083507 8 0 0.0 0.0 0.00 0.00 0.00 94 1014.7
20260505083002 8 0 0.0 0.0 0.00 0.00 0.00 94 1014.7
20260505082505 8 0 0.0 0.0 0.00 0.00 0.00 94 1014.7
20260505081506 8 0 0.0 0.0 0.00 0.00 0.00 94 1014.7
20260505081002 8 0 0.0 0.0 0.00 0.00 0.00 94 1014.7
20260505080506 8 0 0.0 0.0 0.00 0.00 0.00 93 1014.8
20260505080002 8 0 0.0 0.0 0.00 0.00 0.00 93 1014.7
20260505075506 8 0 0.0 0.0 0.00 0.00 0.00 93 1014.7
20260505075002 8 0 0.0 0.0 0.00 0.00 0.00 94 1014.7
20260505074506 8 0 0.0 0.0 0.00 0.00 0.00 93 1014.7
20260505074003 8 0 0.0 0.0 0.00 0.00 0.00 93 1014.7
20260505073002 8 0 0.0 0.0 0.00 0.00 0.00 92 1014.8
20260505072505 8 0 0.0 0.0 0.00 0.00 0.00 92 1014.8
20260505072002 8 0 0.0 0.0 0.00 0.00 0.00 93 1014.8
20260505071505 8 0 0.0 0.0 0.00 0.00 0.00 93 1014.8
20260505071002 8 0 0.0 0.0 0.00 0.00 0.00 92 1014.7
20260505070505 8 0 0.0 0.0 0.00 0.00 0.00 92 1014.7
20260505070002 8 0 0.0 0.0 0.00 0.00 0.00 91 1014.8
20260505065505 9 0 0.0 0.0 0.00 0.00 0.00 91 1014.8
20260505065002 9 0 0.0 0.0 0.00 0.00 0.00 91 1014.7
20260505064506 9 0 0.0 0.0 0.00 0.00 0.00 91 1014.7
20260505064002 9 0 0.0 0.0 0.00 0.00 0.00 91 1014.7
20260505063506 9 0 0.0 0.0 0.00 0.00 0.00 91 1014.7
20260505063002 9 0 0.0 0.0 0.00 0.00 0.00 90 1014.8
20260505062506 9 0 0.0 0.0 0.00 0.00 0.00 90 1014.8
20260505062002 9 0 0.0 0.0 0.00 0.00 0.00 90 1014.8
20260505061506 9 0 0.0 0.0 0.00 0.00 0.00 88 1014.9
20260505061002 10 0 0.0 0.0 0.00 0.00 0.00 88 1014.9
20260505060506 10 0 0.0 0.0 0.00 0.00 0.00 88 1014.9
20260505060002 10 0 0.0 0.0 0.00 0.00 0.00 87 1014.9
20260505055505 10 0 0.0 0.0 0.00 0.00 0.00 87 1014.9
20260505055002 10 0 0.0 0.0 0.00 0.00 0.00 87 1015.0
20260505054506 10 0 0.0 0.0 0.00 0.00 0.00 88 1015.1
20260505054002 10 0 0.0 0.0 0.00 0.00 0.00 88 1015.1
20260505053505 10 0 0.0 0.0 0.00 0.00 0.00 87 1015.1
20260505052505 10 0 0.0 0.0 0.00 0.00 0.00 86 1015.0
20260505052003 10 0 0.0 0.0 0.00 0.00 0.00 84 1015.0
20260505051506 10 0 0.0 0.0 0.00 0.00 0.00 84 1015.0
20260505050506 10 0 0.0 0.0 0.00 0.00 0.00 84 1015.0